This is the latest recevied weather packets stored in our database for station/object K7ZQU-7. If no packets are shown the sender has not sent any weather packets the latest 10 day(s).
| Time | Temp. | Humidity | Pressure | Rain* | Wind** | Luminosity | Snow |
|---|---|---|---|---|---|---|---|
| 1777705798 | 8.89° C | 89% | 1016.3 hPa | 0 mm | 0 m/s | - | - |
| 1777705497 | 8.89° C | 89% | 1016.3 hPa | 0 mm | 0 m/s | - | - |
| 1777705198 | 8.89° C | 90% | 1016.2 hPa | 0 mm | 0.89 m/s, 46° | - | - |
| 1777704600 | 8.89° C | 89% | 1016.2 hPa | 0 mm | 0.45 m/s, 266° | - | - |
| 1777704301 | 8.89° C | 88% | 1016.2 hPa | 0 mm | 0.45 m/s, 290° | - | - |
| 1777703700 | 8.89° C | 89% | 1016.2 hPa | 0 mm | 1.34 m/s, 302° | - | - |
| 1777703401 | 8.89° C | 89% | 1016.2 hPa | 0 mm | 0.45 m/s, 302° | - | - |
| 1777703102 | 8.89° C | 90% | 1016.2 hPa | 0 mm | 0.89 m/s, 291° | - | - |
| 1777702501 | 8.89° C | 87% | 1015.4 hPa | 0 mm | 0 m/s | - | - |
| 1777702202 | 8.89° C | 87% | 1015.2 hPa | 0 mm | 0 m/s | - | - |
| 1777701903 | 8.89° C | 87% | 1015.1 hPa | 0 mm | 0 m/s | - | - |
| 1777701305 | 8.89° C | 87% | 1015.2 hPa | 0 mm | 0.45 m/s, 280° | - | - |
| 1777701004 | 8.89° C | 87% | 1015.1 hPa | 0 mm | 0 m/s | - | - |
| 1777700705 | 8.89° C | 87% | 1015.1 hPa | 0 mm | 0 m/s | - | - |
| 1777700107 | 8.89° C | 88% | 1015.2 hPa | 0 mm | 0 m/s | - | - |
| 1777699506 | 9.44° C | 85% | 1015.2 hPa | 0 mm | 1.79 m/s, 285° | - | - |
| 1777699207 | 9.44° C | 85% | 1015.1 hPa | 0 mm | 0.45 m/s, 236° | - | - |
| 1777698310 | 9.44° C | 84% | 1015.2 hPa | 0 mm | 1.79 m/s, 336° | - | - |
| 1777696511 | 10° C | 80% | 1015.3 hPa | 0 mm | 1.34 m/s, 219° | - | - |
| 1777695614 | 10.56° C | 80% | 1015.2 hPa | 0 mm | 2.24 m/s, 302° | - | - |
| 1777695315 | 10.56° C | 78% | 1015.2 hPa | 0 mm | 0.89 m/s, 224° | - | - |
| 1777695013 | 11.11° C | 78% | 1015.2 hPa | 0 mm | 0.45 m/s, 294° | - | - |
| 1777694427 | 11.11° C | 77% | 1015.3 hPa | 0 mm | 0.89 m/s, 290° | - | - |
| 1777693817 | 11.11° C | 77% | 1015.3 hPa | 0 mm | 0.45 m/s, 298° | - | - |
| 1777693216 | 11.11° C | 76% | 1015 hPa | 0 mm | 0.45 m/s, 329° | - | - |
* Rain latest hour (hover to see other rain measurements)
** Current wind speed in m/s (hover to see current wind gust speed)